Home   Weather   Montego Bay   Past weeks

Flag for Jamaica Past Weather in Montego Bay, Jamaica — Yesterday and Last 2 Weeks

Now
90 °F

Passing clouds.


Feels Like: 108 °F
Forecast: 80 / 91 °F
Wind: 21 mph from East

Location: Montego Bay / Sangster

Current Time: Jul 25, 2017 at 4:03:02 pm

Latest Report: Jul 25, 2017 at 3:00 pm


Visibility: N/A

Pressure: 29.95 "Hg

Humidity: 75%

Dew Point: 81 °F

Location of Montego BayLocation

Past Weather in Montego Bay — Graph

°F

Montego Bay Temperature Yesterday

Maximum temperature yesterday: 91 °F (at 11:00 am)
Minimum temperature yesterday: 81 °F (at 1:00 am)
Average temperature yesterday: 86 °F

High & Low Weather Summary for the Past Weeks

 TemperatureHumidityPressure
High91 °F (Jul 20, 2:00 pm)100% (Jul 17, 4:00 am)30.04 "Hg (Jul 17, 4:00 am)
Low77 °F (Jul 14, 7:00 pm)55% (Jul 15, 9:00 am)29.89 "Hg (Jul 10, 5:00 pm)
Average84 °F76%29.97 "Hg
* Reported Jul 10 3:00 pm — Jul 25 3:00 pm, Montego Bay. Weather by CustomWeather, © 2017

Note: Actual official high and low records may vary slightly from our data, if they occured in-between our weather recording intervals... More about our weather records

Advertising

Montego Bay Weather History for the Previous 24 Hours

Scroll right to see more
 ConditionsComfort  
Time TempWeatherWind HumidityBarometerVisibility
3:00 pm
Tue, Jul 25
90 °FPassing clouds.21 mph75%29.95 "HgN/A
2:00 pm90 °FPassing clouds.22 mph71%29.98 "HgN/A
1:00 pm90 °FPassing clouds.20 mph75%29.98 "HgN/A
12:00 pm90 °FPassing clouds.22 mph71%30.01 "HgN/A
11:00 am90 °FPassing clouds.17 mph71%30.01 "HgN/A
10:00 am90 °FScattered clouds.17 mph71%30.01 "HgN/A
9:00 am88 °FPassing clouds.17 mph70%30.01 "HgN/A
8:00 am86 °FPassing clouds.15 mph75%30.01 "HgN/A
7:00 am84 °FPassing clouds.10 mph79%30.01 "HgN/A
6:00 am81 °FPassing clouds.3 mph84%29.98 "HgN/A
5:00 am82 °FPassing clouds.5 mph79%29.98 "HgN/A
4:00 am82 °FPassing clouds.5 mph79%29.98 "HgN/A
3:00 am82 °FPassing clouds.6 mph79%29.98 "HgN/A
2:00 am82 °FPassing clouds.5 mph70%29.98 "HgN/A
1:00 am84 °FPassing clouds.9 mph66%29.98 "HgN/A
12:00 am84 °FPassing clouds.9 mph66%30.01 "HgN/A
11:00 pm
Mon, Jul 24
86 °FPassing clouds.12 mph62%30.01 "HgN/A
10:00 pm84 °FPassing clouds.3 mph70%30.01 "HgN/A
9:00 pm84 °FPassing clouds.8 mph70%30.01 "HgN/A
8:00 pm84 °FPassing clouds.16 mph74%29.98 "HgN/A
7:00 pm86 °FPassing clouds.17 mph70%29.98 "HgN/A
6:00 pm88 °FPassing clouds.23 mph66%29.95 "HgN/A
5:00 pm90 °FPassing clouds.29 mph59%29.92 "HgN/A
4:00 pm91 °FPassing clouds.24 mph59%29.92 "HgN/A
Weather by CustomWeather, © 2017

See weather overviewHow to use our weather pages